| time (UTC) | temp C | wind direction | speed KPH | gust KPH | rain 1hr cm | rain 24hr cm | rain mn cm | humidity % | barometer mb |
| 20260507170013 | 21 | 256 | 1.6 | 8.0 | 0.00 | 0.00 | 0.00 | 66 | 1012.0 |
| 20260507163010 | 22 | 250 | 3.2 | 11.3 | 0.00 | 0.00 | 0.00 | 63 | 1012.2 |
| 20260507161510 | 22 | 248 | 1.6 | 11.3 | 0.00 | 0.00 | 0.00 | 63 | 1012.3 |
| 20260507160009 | 22 | 297 | 0.0 | 9.7 | 0.00 | 0.00 | 0.00 | 63 | 1012.4 |
| 20260507153011 | 22 | 282 | 1.6 | 9.7 | 0.00 | 0.00 | 0.00 | 62 | 1012.6 |
| 20260507151508 | 22 | 266 | 1.6 | 11.3 | 0.00 | 0.00 | 0.00 | 62 | 1012.7 |
| 20260507150011 | 22 | 237 | 3.2 | 11.3 | 0.00 | 0.00 | 0.00 | 62 | 1012.8 |
| 20260507143007 | 23 | 258 | 3.2 | 12.9 | 0.00 | 0.00 | 0.00 | 60 | 1012.9 |
| 20260507141507 | 23 | 268 | 3.2 | 14.5 | 0.00 | 0.00 | 0.00 | 61 | 1013.0 |
| 20260507140014 | 23 | 255 | 1.6 | 11.3 | 0.00 | 0.00 | 0.00 | 61 | 1013.0 |
| 20260507133009 | 23 | 267 | 0.0 | 4.8 | 0.00 | 0.00 | 0.00 | 62 | 1013.1 |
| 20260507131516 | 23 | 276 | 1.6 | 9.7 | 0.00 | 0.00 | 0.00 | 62 | 1013.1 |
| 20260507130004 | 23 | 268 | 0.0 | 8.0 | 0.00 | 0.00 | 0.00 | 63 | 1013.1 |
| 20260507123011 | 23 | 275 | 0.0 | 4.8 | 0.00 | 0.00 | 0.00 | 66 | 1013.1 |
| 20260507121503 | 23 | 274 | 0.0 | 4.8 | 0.00 | 0.00 | 0.00 | 64 | 1013.2 |
| 20260507120005 | 23 | 270 | 0.0 | 1.6 | 0.00 | 0.00 | 0.00 | 63 | 1013.1 |
| 20260507113004 | 23 | 287 | 0.0 | 0.0 | 0.00 | 0.00 | 0.00 | 67 | 1012.9 |
| 20260507111508 | 22 | 280 | 0.0 | 1.6 | 0.00 | 0.00 | 0.00 | 69 | 1012.8 |
| 20260507110003 | 21 | 210 | 0.0 | 0.0 | 0.00 | 0.00 | 0.00 | 77 | 1012.6 |
| 20260507103059 | 21 | 210 | 0.0 | 0.0 | 0.00 | 0.00 | 0.00 | 78 | 1012.3 |
| 20260507101559 | 21 | 210 | 0.0 | 0.0 | 0.00 | 0.00 | 0.00 | 78 | 1012.2 |
| 20260507100052 | 22 | 210 | 0.0 | 0.0 | 0.00 | 0.00 | 0.00 | 75 | 1012.1 |
| 20260507093053 | 24 | 211 | 0.0 | 0.0 | 0.00 | 0.00 | 0.00 | 67 | 1012.0 |
| 20260507091607 | 25 | 210 | 0.0 | 0.0 | 0.00 | 0.00 | 0.00 | 63 | 1011.8 |
| 20260507090047 | 27 | 210 | 0.0 | 0.0 | 0.00 | 0.00 | 0.00 | 57 | 1011.6 |
| 20260507083045 | 28 | 210 | 0.0 | 1.6 | 0.00 | 0.00 | 0.00 | 47 | 1011.1 |
| 20260507081545 | 29 | 218 | 0.0 | 4.8 | 0.00 | 0.00 | 0.00 | 45 | 1010.9 |
| 20260507080045 | 30 | 235 | 0.0 | 11.3 | 0.00 | 0.00 | 0.00 | 42 | 1010.8 |
| 20260507073044 | 30 | 257 | 3.2 | 12.9 | 0.00 | 0.00 | 0.00 | 40 | 1010.4 |
| 20260507071544 | 30 | 276 | 3.2 | 11.3 | 0.00 | 0.00 | 0.00 | 40 | 1010.3 |
| 20260507070057 | 30 | 235 | 1.6 | 12.9 | 0.00 | 0.00 | 0.00 | 41 | 1010.2 |
| 20260507063041 | 31 | 260 | 1.6 | 17.7 | 0.00 | 0.00 | 0.00 | 39 | 1010.2 |
| 20260507061540 | 31 | 280 | 1.6 | 16.1 | 0.00 | 0.00 | 0.00 | 41 | 1010.3 |
| 20260507060051 | 30 | 220 | 6.4 | 22.5 | 0.00 | 0.00 | 0.00 | 39 | 1010.3 |
| 20260507053035 | 30 | 210 | 8.0 | 22.5 | 0.00 | 0.00 | 0.00 | 39 | 1010.5 |
| 20260507051539 | 30 | 356 | 4.8 | 14.5 | 0.00 | 0.00 | 0.00 | 41 | 1010.6 |
| 20260507050039 | 30 | 249 | 4.8 | 20.9 | 0.00 | 0.00 | 0.00 | 39 | 1010.7 |
| 20260507043029 | 30 | 254 | 8.0 | 20.9 | 0.00 | 0.00 | 0.00 | 41 | 1011.2 |
| 20260507041525 | 30 | 202 | 1.6 | 17.7 | 0.00 | 0.00 | 0.00 | 43 | 1011.5 |
| 20260507040023 | 30 | 214 | 6.4 | 19.3 | 0.00 | 0.00 | 0.00 | 42 | 1011.7 |
| 20260507033019 | 29 | 213 | 9.7 | 20.9 | 0.00 | 0.00 | 0.00 | 41 | 1012.0 |
| 20260507031515 | 29 | 244 | 9.7 | 20.9 | 0.00 | 0.00 | 0.00 | 43 | 1012.2 |
| 20260507030017 | 29 | 213 | 11.3 | 22.5 | 0.00 | 0.00 | 0.00 | 43 | 1012.4 |
| 20260507023007 | 28 | 273 | 6.4 | 17.7 | 0.00 | 0.00 | 0.00 | 45 | 1013.0 |
| 20260507021504 | 28 | 257 | 6.4 | 20.9 | 0.00 | 0.00 | 0.00 | 44 | 1013.2 |
| 20260507020001 | 28 | 289 | 8.0 | 17.7 | 0.00 | 0.00 | 0.00 | 47 | 1013.5 |
| 20260507013057 | 27 | 212 | 9.7 | 19.3 | 0.00 | 0.00 | 0.00 | 48 | 1013.9 |
| 20260507011555 | 27 | 233 | 8.0 | 22.5 | 0.00 | 0.00 | 0.00 | 49 | 1014.1 |
| 20260507010109 | 26 | 260 | 12.9 | 24.1 | 0.00 | 0.00 | 0.00 | 50 | 1014.1 |
| 20260507003046 | 25 | 328 | 9.7 | 25.7 | 0.00 | 0.00 | 0.00 | 52 | 1014.1 |
| 20260507001551 | 25 | 202 | 11.3 | 27.4 | 0.00 | 0.00 | 0.00 | 51 | 1014.1 |
| 20260507000041 | 25 | 237 | 6.4 | 25.7 | 0.00 | 0.00 | 0.00 | 53 | 1014.2 |
| 20260506233038 | 25 | 221 | 11.3 | 27.4 | 0.00 | 0.00 | 0.00 | 54 | 1013.8 |
| 20260506231536 | 24 | 247 | 8.0 | 19.3 | 0.00 | 0.00 | 0.00 | 57 | 1013.6 |
| 20260506230031 | 23 | 273 | 6.4 | 17.7 | 0.00 | 0.00 | 0.00 | 59 | 1013.5 |
| 20260506223028 | 22 | 240 | 3.2 | 19.3 | 0.00 | 0.00 | 0.00 | 63 | 1013.3 |
| 20260506221526 | 22 | 238 | 6.4 | 14.5 | 0.00 | 0.00 | 0.00 | 63 | 1013.1 |
| 20260506220025 | 22 | 221 | 4.8 | 14.5 | 0.00 | 0.00 | 0.00 | 65 | 1012.8 |
| 20260506213020 | 21 | 215 | 4.8 | 14.5 | 0.00 | 0.00 | 0.00 | 66 | 1012.6 |
| 20260506211518 | 22 | 218 | 4.8 | 12.9 | 0.00 | 0.00 | 0.00 | 65 | 1012.5 |
| 20260506210016 | 22 | 273 | 6.4 | 14.5 | 0.00 | 0.00 | 0.00 | 64 | 1012.2 |
| 20260506203016 | 22 | 264 | 4.8 | 17.7 | 0.00 | 0.00 | 0.00 | 62 | 1011.8 |
| 20260506201520 | 22 | 253 | 8.0 | 16.1 | 0.00 | 0.00 | 0.00 | 62 | 1011.7 |
| 20260506200016 | 22 | 266 | 8.0 | 17.7 | 0.00 | 0.00 | 0.00 | 64 | 1011.5 |
| 20260506193008 | 22 | 245 | 4.8 | 12.9 | 0.00 | 0.00 | 0.00 | 64 | 1011.4 |
| 20260506191505 | 23 | 202 | 3.2 | 16.1 | 0.00 | 0.00 | 0.00 | 64 | 1011.5 |
| 20260506190004 | 23 | 255 | 4.8 | 16.1 | 0.00 | 0.00 | 0.00 | 64 | 1011.5 |
| 20260506183002 | 23 | 270 | 6.4 | 14.5 | 0.00 | 0.00 | 0.00 | 65 | 1011.5 |
| 20260506181503 | 23 | 248 | 3.2 | 14.5 | 0.00 | 0.00 | 0.00 | 66 | 1011.6 |
| 20260506174701 | 23 | 256 | 1.6 | 9.7 | 0.00 | 0.00 | 0.00 | 68 | 1011.4 |
| 20260506173128 | 23 | 216 | 3.2 | 11.3 | 0.00 | 0.00 | 0.00 | 68 | 1011.3 |
| 20260506171601 | 23 | 269 | 4.8 | 11.3 | 0.00 | 0.00 | 0.00 | 68 | 1011.4 |